QTR24F OTHH-LKPR

Flight info

Callsign QTR24F
Flight time 6h 24m
Altitude 28000
Route DATRI2W/34L DATRI L564 BAT/N0485F290 L564 MIGMA/N0472F280 M550 MEVDO Y511 ITRUX/N0487F340 Y511 PMA Z712 SIGRO/N0482F360 Z712 WEJ L677 CVO L617 NOZ L551 ANTAR DCT RIGRO DCT ATFIR DCT LOMOS/N0467F380 DCT PADGU DCT DEGET DCT LALES DCT TUMKA DCT VLM
Aircraft B77L/H-SDE1E2E3FGHIJ2J3J4J5M1RWXY/LB1D1

Departure

Time 2026-05-05 10:21
Airport Hamad International Airport (OTHH)

Arrival

Time 2026-05-05 16:45
Airport Václav Havel Airport Prague (LKPR)
Time Latitude Longitude Altitude Speed Heading
2026-05-05 09:50 25.27658 51.61212 34 ft 0 kts 248°
2026-05-05 10:10 25.27662 51.61224 33 ft 4 kts 248°
2026-05-05 10:10 25.27672 51.61252 32 ft 4 kts 248°
2026-05-05 10:11 25.27683 51.61279 32 ft 4 kts 245°
2026-05-05 10:11 25.27694 51.61306 32 ft 4 kts 243°
2026-05-05 10:11 25.27707 51.61333 31 ft 4 kts 239°
2026-05-05 10:11 25.27722 51.61357 30 ft 4 kts 229°
2026-05-05 10:12 25.27741 51.61375 31 ft 4 kts 187°
2026-05-05 10:12 25.27751 51.61375 31 ft 2 kts 132°
2026-05-05 10:14 25.27736 51.61392 34 ft 9 kts 136°
2026-05-05 10:15 25.27646 51.61443 34 ft 17 kts 157°
2026-05-05 10:15 25.27542 51.61489 34 ft 16 kts 158°
2026-05-05 10:15 25.27440 51.61498 34 ft 16 kts 218°
2026-05-05 10:15 25.27391 51.61391 34 ft 16 kts 248°
2026-05-05 10:16 25.27346 51.61268 34 ft 18 kts 248°
2026-05-05 10:16 25.27300 51.61141 35 ft 18 kts 248°
2026-05-05 10:16 25.27254 51.61013 35 ft 18 kts 248°
2026-05-05 10:16 25.27189 51.60835 35 ft 30 kts 248°
2026-05-05 10:17 25.27111 51.60622 35 ft 30 kts 248°
2026-05-05 10:17 25.27033 51.60409 34 ft 30 kts 248°
2026-05-05 10:17 25.26960 51.60207 34 ft 19 kts 248°
2026-05-05 10:17 25.26889 51.60153 33 ft 13 kts 171°
2026-05-05 10:18 25.26788 51.60195 32 ft 23 kts 158°
2026-05-05 10:18 25.26599 51.60278 33 ft 30 kts 158°
2026-05-05 10:18 25.26406 51.60364 34 ft 30 kts 158°
2026-05-05 10:18 25.26212 51.60450 34 ft 30 kts 158°
2026-05-05 10:19 25.26018 51.60535 34 ft 30 kts 158°
2026-05-05 10:19 25.25832 51.60616 33 ft 25 kts 158°
2026-05-05 10:19 25.25684 51.60682 33 ft 13 kts 158°
2026-05-05 10:19 25.25605 51.60681 33 ft 12 kts 220°
2026-05-05 10:20 25.25570 51.60591 30 ft 14 kts 251°
2026-05-05 10:20 25.25594 51.60515 29 ft 4 kts 338°
2026-05-05 10:20 25.25595 51.60515 29 ft 0 kts 338°
2026-05-05 10:20 25.25642 51.60495 30 ft 29 kts 339°
2026-05-05 10:21 25.26076 51.60306 34 ft 103 kts 338°
2026-05-05 10:21 25.26953 51.59919 29 ft 166 kts 338°
2026-05-05 10:21 25.28144 51.59411 293 ft 189 kts 340°
2026-05-05 10:21 25.29399 51.58848 829 ft 197 kts 338°
2026-05-05 10:22 25.30633 51.58287 1620 ft 189 kts 338°
2026-05-05 10:22 25.31890 51.57724 2014 ft 205 kts 338°
2026-05-05 10:22 25.33303 51.57107 2235 ft 230 kts 339°
2026-05-05 10:22 25.34867 51.56430 2511 ft 252 kts 339°
2026-05-05 10:23 25.36541 51.55707 3006 ft 263 kts 339°
2026-05-05 10:23 25.38261 51.54936 3606 ft 266 kts 339°
2026-05-05 10:23 25.39835 51.53898 4052 ft 270 kts 312°
2026-05-05 10:23 25.40668 51.52032 4698 ft 279 kts 279°
2026-05-05 10:24 25.40565 51.49881 5385 ft 285 kts 256°
2026-05-05 10:24 25.39813 51.47846 6106 ft 290 kts 242°
2026-05-05 10:24 25.38769 51.45935 6845 ft 291 kts 238°
2026-05-05 10:24 25.37667 51.44059 7589 ft 293 kts 238°
2026-05-05 10:25 25.36557 51.42174 8403 ft 292 kts 238°
2026-05-05 10:25 25.35453 51.40283 9183 ft 293 kts 239°
2026-05-05 10:25 25.34352 51.38378 9908 ft 295 kts 239°
2026-05-05 10:25 25.33230 51.36418 10334 ft 311 kts 240°
2026-05-05 10:26 25.32447 51.35041 10440 ft 327 kts 240°
2026-05-05 10:26 25.31197 51.32838 10646 ft 350 kts 239°
2026-05-05 10:26 25.29853 51.30499 10847 ft 368 kts 236°
2026-05-05 10:26 25.28005 51.28481 11182 ft 384 kts 213°
2026-05-05 10:27 25.25519 51.27342 11750 ft 391 kts 195°
2026-05-05 10:27 25.22796 51.26980 11781 ft 400 kts 179°
2026-05-05 10:27 25.20032 51.27473 12455 ft 406 kts 166°
2026-05-05 10:27 25.17429 51.28612 13305 ft 409 kts 154°
2026-05-05 10:28 25.14916 51.30123 14036 ft 413 kts 152°
2026-05-05 10:28 25.12410 51.31701 14748 ft 416 kts 152°
2026-05-05 10:28 25.09893 51.33298 15500 ft 418 kts 152°
2026-05-05 10:28 25.07356 51.34890 16188 ft 421 kts 152°
2026-05-05 10:29 25.04793 51.36479 16891 ft 424 kts 152°
2026-05-05 10:29 25.02208 51.38065 17604 ft 426 kts 153°
2026-05-05 10:29 24.99601 51.39653 18289 ft 429 kts 153°
2026-05-05 10:29 24.96979 51.41244 18840 ft 432 kts 153°
2026-05-05 10:30 24.94330 51.42848 19345 ft 437 kts 153°
2026-05-05 10:30 24.91648 51.44472 19857 ft 442 kts 153°
2026-05-05 10:30 24.88944 51.46109 20381 ft 446 kts 153°
2026-05-05 10:30 24.86214 51.47761 20900 ft 450 kts 153°
2026-05-05 10:31 24.83464 51.49426 21407 ft 454 kts 153°
2026-05-05 10:31 24.80682 51.51110 21925 ft 458 kts 153°
2026-05-05 10:31 24.77885 51.52801 22411 ft 461 kts 153°
2026-05-05 10:31 24.75055 51.54498 22899 ft 462 kts 155°
2026-05-05 10:32 24.72052 51.55758 23205 ft 465 kts 169°
2026-05-05 10:32 24.68843 51.56161 23605 ft 464 kts 182°
2026-05-05 10:32 24.65659 51.55788 24054 ft 457 kts 195°
2026-05-05 10:32 24.62553 51.54983 24402 ft 461 kts 196°
2026-05-05 10:33 24.59416 51.54182 24782 ft 464 kts 195°
2026-05-05 10:33 24.56260 51.53399 25226 ft 466 kts 195°
2026-05-05 10:33 24.53092 51.52633 25672 ft 467 kts 195°
2026-05-05 10:33 24.49913 51.51875 26091 ft 469 kts 195°
2026-05-05 10:34 24.46720 51.51121 26532 ft 471 kts 195°
2026-05-05 10:34 24.43507 51.50363 26917 ft 473 kts 195°
2026-05-05 10:34 24.40281 51.49603 27303 ft 475 kts 195°
2026-05-05 10:34 24.37039 51.48838 27658 ft 478 kts 195°
2026-05-05 10:35 24.33780 51.48070 28023 ft 480 kts 195°
2026-05-05 10:35 24.30547 51.47308 28387 ft 482 kts 195°
2026-05-05 10:35 24.27259 51.46533 28747 ft 484 kts 195°
2026-05-05 10:35 24.23958 51.45773 29092 ft 487 kts 194°
2026-05-05 10:36 24.20592 51.45256 29485 ft 490 kts 189°
2026-05-05 10:36 24.17182 51.45103 29946 ft 491 kts 184°
2026-05-05 10:36 24.13771 51.45150 30399 ft 489 kts 183°
2026-05-05 10:36 24.10366 51.45194 30793 ft 489 kts 184°
2026-05-05 10:37 24.06973 51.45227 31199 ft 487 kts 184°
2026-05-05 10:37 24.03587 51.45250 31612 ft 486 kts 184°
2026-05-05 10:37 24.00196 51.45264 31784 ft 489 kts 184°
2026-05-05 10:37 23.96786 51.45272 31761 ft 489 kts 184°
2026-05-05 10:38 23.90016 51.45289 31734 ft 484 kts 184°
2026-05-05 10:38 23.83274 51.45305 31754 ft 485 kts 184°
2026-05-05 10:39 23.76520 51.45322 31761 ft 486 kts 184°
2026-05-05 10:39 23.69747 51.45340 31756 ft 487 kts 184°
2026-05-05 10:40 23.62969 51.45359 31743 ft 488 kts 184°
2026-05-05 10:40 23.56180 51.45378 31750 ft 488 kts 184°
2026-05-05 10:41 23.49384 51.45396 31746 ft 488 kts 184°
2026-05-05 10:41 23.42585 51.45460 31744 ft 489 kts 183°
2026-05-05 10:42 23.32382 51.45647 31739 ft 489 kts 182°
2026-05-05 10:43 23.25575 51.45756 31742 ft 489 kts 182°
2026-05-05 10:43 23.18761 51.45863 31744 ft 490 kts 182°
2026-05-05 10:44 23.11947 51.45969 31730 ft 490 kts 182°
2026-05-05 10:44 23.05127 51.46076 31737 ft 490 kts 182°
2026-05-05 10:45 22.98348 51.46181 31740 ft 491 kts 182°
2026-05-05 10:45 22.91595 51.45863 31722 ft 480 kts 198°
2026-05-05 10:45 22.88555 51.44465 31736 ft 473 kts 215°
2026-05-05 10:46 22.86043 51.42209 31748 ft 469 kts 229°
2026-05-05 10:46 22.82505 51.36324 31732 ft 468 kts 250°
2026-05-05 10:47 22.81185 51.29453 31736 ft 467 kts 261°
2026-05-05 10:47 22.80103 51.22484 31741 ft 470 kts 259°
2026-05-05 10:48 22.78890 51.15510 31739 ft 471 kts 259°
2026-05-05 10:48 22.77647 51.08540 31735 ft 471 kts 259°
2026-05-05 10:49 22.76395 51.01581 31738 ft 470 kts 259°
2026-05-05 10:49 22.75142 50.94636 31738 ft 469 kts 259°
2026-05-05 10:50 22.73892 50.87713 31737 ft 468 kts 259°
2026-05-05 10:50 22.72642 50.80803 31736 ft 467 kts 258°
2026-05-05 10:51 22.71391 50.73905 31736 ft 466 kts 258°
2026-05-05 10:51 22.70138 50.67014 31736 ft 466 kts 258°
2026-05-05 10:52 22.68882 50.60124 31737 ft 466 kts 258°
2026-05-05 10:52 22.67623 50.53236 31737 ft 467 kts 258°
2026-05-05 10:53 22.66360 50.46341 31736 ft 467 kts 258°
2026-05-05 10:53 22.65102 50.39489 31734 ft 467 kts 258°
2026-05-05 10:54 22.63831 50.32588 31738 ft 468 kts 258°
2026-05-05 10:54 22.62556 50.25680 31736 ft 468 kts 258°
2026-05-05 10:55 22.61277 50.18769 31731 ft 468 kts 258°
2026-05-05 10:55 22.59994 50.11856 31731 ft 468 kts 258°
2026-05-05 10:56 22.58709 50.04945 31733 ft 468 kts 258°
2026-05-05 10:56 22.57421 49.98037 31734 ft 468 kts 258°
2026-05-05 10:57 22.56132 49.91134 31732 ft 468 kts 258°
2026-05-05 10:57 22.54839 49.84231 31734 ft 468 kts 258°
2026-05-05 10:58 22.53918 49.77255 31722 ft 469 kts 266°
2026-05-05 10:58 22.54079 49.70199 31726 ft 470 kts 274°
2026-05-05 10:59 22.54784 49.63163 31729 ft 471 kts 275°
2026-05-05 10:59 22.55487 49.56121 31729 ft 471 kts 275°
2026-05-05 11:00 22.56166 49.49074 31731 ft 471 kts 274°
2026-05-05 11:00 22.56830 49.42025 31736 ft 471 kts 274°
2026-05-05 11:01 22.57488 49.34985 31728 ft 470 kts 274°
2026-05-05 11:01 22.58142 49.27958 31733 ft 469 kts 274°
2026-05-05 11:02 22.58793 49.20940 31729 ft 468 kts 274°
2026-05-05 11:02 22.59436 49.13980 31731 ft 468 kts 274°
2026-05-05 11:03 22.60079 49.06976 31731 ft 468 kts 274°
2026-05-05 11:03 22.60719 48.99976 31733 ft 468 kts 274°
2026-05-05 11:04 22.61357 48.92972 31730 ft 468 kts 274°
2026-05-05 11:04 22.61991 48.85961 31730 ft 468 kts 274°
2026-05-05 11:05 22.62623 48.78950 31731 ft 468 kts 274°
2026-05-05 11:05 22.63251 48.71949 31730 ft 467 kts 274°
2026-05-05 11:06 22.63875 48.64955 31732 ft 466 kts 274°
2026-05-05 11:06 22.64495 48.57971 31731 ft 466 kts 274°
2026-05-05 11:07 22.65107 48.51044 31736 ft 465 kts 273°
2026-05-05 11:07 22.65720 48.44069 31738 ft 465 kts 273°
2026-05-05 11:08 22.66330 48.37095 31740 ft 465 kts 273°
2026-05-05 11:08 22.66938 48.30116 31736 ft 466 kts 273°
2026-05-05 11:09 22.67542 48.23135 31753 ft 466 kts 273°
2026-05-05 11:09 22.68143 48.16156 31743 ft 465 kts 273°
2026-05-05 11:10 22.68740 48.09192 31734 ft 464 kts 273°
2026-05-05 11:10 22.69333 48.02241 31738 ft 463 kts 273°
2026-05-05 11:11 22.69915 47.95298 31748 ft 462 kts 273°
2026-05-05 11:11 22.70490 47.88371 31742 ft 462 kts 273°
2026-05-05 11:12 22.71063 47.81438 31745 ft 462 kts 273°
2026-05-05 11:12 22.71634 47.74511 31751 ft 462 kts 273°
2026-05-05 11:13 22.72202 47.67576 31757 ft 462 kts 273°
2026-05-05 11:13 22.72767 47.60643 31770 ft 462 kts 273°
2026-05-05 11:14 22.73329 47.53711 31762 ft 462 kts 273°
2026-05-05 11:14 22.73793 47.47956 31771 ft 461 kts 272°
2026-05-05 11:15 22.74348 47.41041 31771 ft 460 kts 272°
2026-05-05 11:15 22.74900 47.34135 31779 ft 460 kts 272°
2026-05-05 11:16 22.75448 47.27233 31791 ft 460 kts 272°
2026-05-05 11:16 22.75994 47.20329 31793 ft 460 kts 272°
2026-05-05 11:17 22.76540 47.13422 31798 ft 460 kts 272°
2026-05-05 11:17 22.77094 47.06517 31808 ft 460 kts 272°
2026-05-05 11:18 22.77644 46.99617 31804 ft 460 kts 272°
2026-05-05 11:18 22.78191 46.92718 31804 ft 459 kts 272°
2026-05-05 11:19 22.78733 46.85822 31799 ft 459 kts 272°
2026-05-05 11:19 22.79267 46.79003 31817 ft 464 kts 272°
2026-05-05 11:20 22.79815 46.71924 31820 ft 478 kts 272°
2026-05-05 11:20 22.80374 46.64700 31811 ft 481 kts 272°
2026-05-05 11:21 22.80932 46.57472 31812 ft 481 kts 272°
2026-05-05 11:21 22.81484 46.50256 31809 ft 480 kts 272°
2026-05-05 11:22 22.82031 46.43062 31809 ft 478 kts 272°
2026-05-05 11:22 22.82571 46.35900 31801 ft 475 kts 272°
2026-05-05 11:23 22.83097 46.28775 31808 ft 474 kts 272°
2026-05-05 11:23 22.83618 46.21658 31795 ft 473 kts 272°
2026-05-05 11:24 22.84137 46.14549 31792 ft 473 kts 272°
2026-05-05 11:24 22.84653 46.07435 31795 ft 474 kts 272°
2026-05-05 11:25 22.85169 46.00300 31785 ft 475 kts 272°
2026-05-05 11:25 22.85681 45.93152 31784 ft 476 kts 272°
2026-05-05 11:26 22.86191 45.85999 31786 ft 476 kts 272°
2026-05-05 11:26 22.86697 45.78846 31775 ft 476 kts 272°
2026-05-05 11:27 22.87201 45.71699 31769 ft 475 kts 272°
2026-05-05 11:27 22.87700 45.64558 31777 ft 475 kts 272°
2026-05-05 11:28 22.88194 45.57440 31771 ft 474 kts 272°
2026-05-05 11:28 22.88684 45.50338 31770 ft 474 kts 272°
2026-05-05 11:29 22.89170 45.43253 31770 ft 474 kts 272°
2026-05-05 11:29 22.89658 45.36081 31787 ft 474 kts 272°
2026-05-05 11:30 22.90137 45.29008 31778 ft 473 kts 272°
2026-05-05 11:30 22.90613 45.21925 31781 ft 472 kts 272°
2026-05-05 11:31 22.91087 45.14836 31784 ft 471 kts 271°
2026-05-05 11:31 22.91557 45.07755 31789 ft 471 kts 271°
2026-05-05 11:32 22.92024 45.00671 31791 ft 471 kts 271°
2026-05-05 11:32 22.92489 44.93588 31800 ft 471 kts 271°
2026-05-05 11:33 22.92951 44.86495 31798 ft 472 kts 271°
2026-05-05 11:33 22.93412 44.79384 31803 ft 473 kts 271°
2026-05-05 11:34 22.93870 44.72271 31805 ft 473 kts 272°
2026-05-05 11:34 22.94880 44.65187 31807 ft 477 kts 280°
2026-05-05 11:35 22.96861 44.58292 31816 ft 480 kts 285°
2026-05-05 11:35 22.99022 44.51444 31813 ft 480 kts 285°
2026-05-05 11:36 23.01158 44.44587 31818 ft 479 kts 285°
2026-05-05 11:36 23.03273 44.37732 31830 ft 479 kts 285°
2026-05-05 11:37 23.05378 44.30880 31821 ft 478 kts 285°
2026-05-05 11:37 23.07465 44.24080 31824 ft 477 kts 285°
2026-05-05 11:38 23.09557 44.17249 31828 ft 476 kts 284°
2026-05-05 11:38 23.11643 44.10429 31833 ft 475 kts 284°
2026-05-05 11:39 23.13722 44.03619 31834 ft 475 kts 284°
2026-05-05 11:39 23.15796 43.96818 31847 ft 474 kts 284°
2026-05-05 11:40 23.17864 43.90022 31853 ft 473 kts 284°
2026-05-05 11:40 23.19924 43.83241 31849 ft 472 kts 284°
2026-05-05 11:41 23.21976 43.76473 31870 ft 471 kts 284°
2026-05-05 11:41 23.24023 43.69712 31874 ft 471 kts 284°
2026-05-05 11:42 23.26066 43.62949 31895 ft 470 kts 284°
2026-05-05 11:42 23.28104 43.56196 31882 ft 469 kts 284°
2026-05-05 11:43 23.30131 43.49458 31915 ft 468 kts 284°
2026-05-05 11:43 23.32151 43.42723 31913 ft 468 kts 284°
2026-05-05 11:44 23.34164 43.36004 31902 ft 467 kts 284°
2026-05-05 11:44 23.36171 43.29293 31921 ft 466 kts 284°
2026-05-05 11:45 23.38158 43.22634 31939 ft 466 kts 283°
2026-05-05 11:45 23.40168 43.15893 31937 ft 465 kts 283°
2026-05-05 11:46 23.42144 43.09234 31952 ft 465 kts 283°
2026-05-05 11:46 23.44125 43.02524 31947 ft 465 kts 283°
2026-05-05 11:47 23.46103 42.95812 31990 ft 465 kts 283°
2026-05-05 11:47 23.48078 42.89103 31988 ft 465 kts 283°
2026-05-05 11:48 23.51035 42.79035 31989 ft 465 kts 283°
2026-05-05 11:48 23.53007 42.72322 31989 ft 465 kts 283°
2026-05-05 11:49 23.54991 42.65608 31992 ft 465 kts 283°
2026-05-05 11:49 23.56973 42.58895 31992 ft 465 kts 283°
2026-05-05 11:50 23.58949 42.52182 31982 ft 465 kts 283°
2026-05-05 11:50 23.60919 42.45472 31985 ft 465 kts 283°
2026-05-05 11:51 23.62887 42.38762 31994 ft 464 kts 283°
2026-05-05 11:51 23.64848 42.32061 31979 ft 464 kts 283°
2026-05-05 11:52 23.66800 42.25363 31975 ft 463 kts 283°
2026-05-05 11:52 23.68727 42.18667 31987 ft 462 kts 282°
2026-05-05 11:53 23.70650 42.11973 31979 ft 462 kts 282°
2026-05-05 11:53 23.72570 42.05288 31969 ft 461 kts 282°
2026-05-05 11:54 23.74485 41.98609 31978 ft 461 kts 282°
2026-05-05 11:54 23.76417 41.91951 31966 ft 460 kts 282°
2026-05-05 11:55 23.78354 41.85297 31957 ft 460 kts 282°
2026-05-05 11:55 23.80156 41.79084 31960 ft 459 kts 282°
2026-05-05 11:56 23.82073 41.72442 31962 ft 458 kts 282°
2026-05-05 11:56 23.83978 41.65802 31952 ft 457 kts 282°
2026-05-05 11:57 23.85877 41.59179 31950 ft 457 kts 282°
2026-05-05 11:57 23.87770 41.52561 31960 ft 456 kts 282°
2026-05-05 11:58 23.89643 41.45995 31941 ft 455 kts 282°
2026-05-05 11:58 23.91403 41.39814 31941 ft 455 kts 282°
2026-05-05 11:59 23.93277 41.33221 31947 ft 454 kts 282°
2026-05-05 11:59 23.95147 41.26627 31931 ft 454 kts 282°
2026-05-05 12:00 23.97012 41.20040 31936 ft 453 kts 282°
2026-05-05 12:00 23.98794 41.13734 31932 ft 453 kts 282°
2026-05-05 12:01 24.00652 41.07147 31927 ft 453 kts 282°
2026-05-05 12:01 24.02505 41.00565 31924 ft 453 kts 282°
2026-05-05 12:02 24.04356 40.93980 31918 ft 453 kts 282°
2026-05-05 12:02 24.05889 40.88511 31934 ft 452 kts 281°
2026-05-05 12:03 24.07728 40.81940 31920 ft 451 kts 281°
2026-05-05 12:03 24.09560 40.75381 31916 ft 450 kts 281°
2026-05-05 12:04 24.11383 40.68840 31915 ft 449 kts 281°
2026-05-05 12:04 24.13201 40.62306 31921 ft 449 kts 281°
2026-05-05 12:05 24.15017 40.55770 31920 ft 448 kts 281°
2026-05-05 12:05 24.17199 40.49337 31920 ft 455 kts 289°
2026-05-05 12:06 24.20159 40.43171 31915 ft 458 kts 291°
2026-05-05 12:06 24.23135 40.37008 31910 ft 458 kts 291°
2026-05-05 12:07 24.26091 40.30831 31914 ft 457 kts 291°
2026-05-05 12:07 24.29037 40.24654 31926 ft 457 kts 291°
2026-05-05 12:08 24.31978 40.18479 31921 ft 457 kts 290°
2026-05-05 12:08 24.34898 40.12340 31923 ft 457 kts 290°
2026-05-05 12:09 24.37854 40.06118 31924 ft 457 kts 290°
2026-05-05 12:09 24.40790 39.99988 31926 ft 459 kts 292°
2026-05-05 12:10 24.44485 39.94196 31913 ft 470 kts 302°
2026-05-05 12:10 24.48672 39.88692 31918 ft 469 kts 302°
2026-05-05 12:11 24.52827 39.83169 31912 ft 469 kts 301°
2026-05-05 12:11 24.56960 39.77633 31926 ft 469 kts 301°
2026-05-05 12:12 24.61085 39.72095 31929 ft 468 kts 301°
2026-05-05 12:12 24.65203 39.66562 31917 ft 467 kts 301°
2026-05-05 12:13 24.69315 39.61032 31925 ft 467 kts 301°
2026-05-05 12:13 24.73417 39.55507 31932 ft 467 kts 301°
2026-05-05 12:14 24.77524 39.49970 31925 ft 467 kts 301°
2026-05-05 12:14 24.81631 39.44430 31924 ft 467 kts 301°
2026-05-05 12:15 24.85728 39.38881 31907 ft 467 kts 301°
2026-05-05 12:15 24.89830 39.33337 31932 ft 467 kts 301°
2026-05-05 12:16 24.93943 39.27767 31920 ft 471 kts 301°
2026-05-05 12:16 24.97503 39.21769 31909 ft 463 kts 290°
2026-05-05 12:17 25.00326 39.15403 31911 ft 463 kts 290°
2026-05-05 12:17 25.03190 39.09043 31915 ft 463 kts 290°
2026-05-05 12:18 25.06072 39.02686 31907 ft 464 kts 290°
2026-05-05 12:18 25.08932 38.96366 31904 ft 464 kts 290°
2026-05-05 12:19 25.11823 38.90008 31906 ft 464 kts 290°
2026-05-05 12:19 25.14692 38.83650 31882 ft 462 kts 290°
2026-05-05 12:20 25.17542 38.77315 31896 ft 460 kts 290°
2026-05-05 12:20 25.20388 38.70994 31887 ft 459 kts 290°
2026-05-05 12:21 25.23230 38.64687 31899 ft 458 kts 290°
2026-05-05 12:21 25.26057 38.58385 31892 ft 458 kts 289°
2026-05-05 12:22 25.28887 38.52069 31888 ft 460 kts 289°
2026-05-05 12:22 25.31727 38.45726 31877 ft 461 kts 289°
2026-05-05 12:23 25.34569 38.39369 31872 ft 462 kts 289°
2026-05-05 12:23 25.37412 38.33005 31872 ft 462 kts 289°
2026-05-05 12:24 25.40253 38.26636 31878 ft 462 kts 289°
2026-05-05 12:24 25.43088 38.20267 31871 ft 462 kts 289°
2026-05-05 12:25 25.45926 38.13885 31882 ft 462 kts 289°
2026-05-05 12:25 25.48754 38.07520 31899 ft 460 kts 289°
2026-05-05 12:26 25.51574 38.01157 31892 ft 460 kts 289°
2026-05-05 12:26 25.54396 37.94786 31884 ft 462 kts 290°
2026-05-05 12:27 25.57220 37.88394 31902 ft 462 kts 290°
2026-05-05 12:27 25.60043 37.81991 31920 ft 463 kts 290°
2026-05-05 12:28 25.62872 37.75571 31914 ft 465 kts 290°
2026-05-05 12:28 25.65701 37.69147 31928 ft 465 kts 290°
2026-05-05 12:29 25.68534 37.62708 31938 ft 463 kts 290°
2026-05-05 12:29 25.71359 37.56277 31934 ft 464 kts 290°
2026-05-05 12:30 25.74185 37.49811 31926 ft 467 kts 290°
2026-05-05 12:30 25.77021 37.43326 31932 ft 467 kts 290°
2026-05-05 12:31 25.79857 37.36840 31928 ft 467 kts 290°
2026-05-05 12:31 25.82685 37.30363 31925 ft 467 kts 290°
2026-05-05 12:32 25.85509 37.23881 31923 ft 466 kts 290°
2026-05-05 12:32 25.88322 37.17412 31931 ft 466 kts 290°
2026-05-05 12:33 25.91118 37.10971 31929 ft 466 kts 290°
2026-05-05 12:33 25.93932 37.04481 31927 ft 466 kts 290°
2026-05-05 12:34 25.96743 36.97990 31935 ft 466 kts 290°
2026-05-05 12:34 25.99551 36.91494 31932 ft 466 kts 290°
2026-05-05 12:35 26.02357 36.84994 31934 ft 466 kts 290°
2026-05-05 12:35 26.05158 36.78494 31937 ft 466 kts 290°
2026-05-05 12:36 26.07957 36.71989 31951 ft 466 kts 290°
2026-05-05 12:36 26.10755 36.65477 31931 ft 466 kts 290°
2026-05-05 12:37 26.13547 36.58969 31947 ft 466 kts 290°
2026-05-05 12:37 26.15791 36.53766 31936 ft 467 kts 291°
2026-05-05 12:38 26.19318 36.47617 31940 ft 475 kts 301°
2026-05-05 12:38 26.23680 36.42011 31944 ft 482 kts 307°
2026-05-05 12:39 26.28374 36.36674 31950 ft 483 kts 308°
2026-05-05 12:39 26.33068 36.31330 31949 ft 482 kts 307°
2026-05-05 12:40 26.37737 36.25962 31943 ft 482 kts 307°
2026-05-05 12:40 26.42386 36.20590 31949 ft 481 kts 307°
2026-05-05 12:41 26.47028 36.15218 31946 ft 480 kts 307°
2026-05-05 12:41 26.51660 36.09853 31948 ft 480 kts 307°
2026-05-05 12:42 26.56221 36.04564 31949 ft 480 kts 307°
2026-05-05 12:42 26.60816 35.99229 31948 ft 479 kts 307°
2026-05-05 12:43 26.65440 35.93855 31950 ft 479 kts 307°
2026-05-05 12:43 26.70059 35.88479 31962 ft 479 kts 307°
2026-05-05 12:44 26.74672 35.83102 31952 ft 479 kts 307°
2026-05-05 12:44 26.79278 35.77729 31950 ft 478 kts 307°
2026-05-05 12:45 26.83874 35.72362 31954 ft 478 kts 307°
2026-05-05 12:45 26.88466 35.66993 31954 ft 477 kts 307°
2026-05-05 12:46 26.93051 35.61623 31944 ft 477 kts 307°
2026-05-05 12:46 26.97636 35.56245 31956 ft 477 kts 307°
2026-05-05 12:47 27.02208 35.50877 31959 ft 477 kts 307°
2026-05-05 12:47 27.06789 35.45492 31961 ft 477 kts 307°
2026-05-05 12:48 27.10864 35.40695 31958 ft 477 kts 307°
2026-05-05 12:48 27.15440 35.35304 31955 ft 476 kts 307°
2026-05-05 12:49 27.19236 35.30826 31955 ft 476 kts 307°
2026-05-05 12:49 27.23796 35.25439 31956 ft 476 kts 307°
2026-05-05 12:50 27.28356 35.20045 31955 ft 476 kts 307°
2026-05-05 12:50 27.32915 35.14647 31954 ft 476 kts 307°
2026-05-05 12:51 27.37472 35.09242 31949 ft 476 kts 307°
2026-05-05 12:51 27.42031 35.03830 31971 ft 476 kts 307°
2026-05-05 12:52 27.46586 34.98414 31962 ft 476 kts 307°
2026-05-05 12:52 27.51135 34.93010 31948 ft 475 kts 308°
2026-05-05 12:53 27.55915 34.87840 31947 ft 477 kts 310°
2026-05-05 12:53 27.60744 34.82792 31950 ft 476 kts 310°
2026-05-05 12:54 27.68002 34.75147 31942 ft 476 kts 310°
2026-05-05 12:55 27.72820 34.70036 31951 ft 475 kts 310°
2026-05-05 12:55 27.77633 34.64923 31967 ft 475 kts 310°
2026-05-05 12:56 27.82442 34.59808 31958 ft 474 kts 310°
2026-05-05 12:56 27.87241 34.54698 31958 ft 474 kts 310°
2026-05-05 12:57 27.92036 34.49586 31965 ft 473 kts 310°
2026-05-05 12:57 27.96822 34.44479 31984 ft 474 kts 310°
2026-05-05 12:57 27.99203 34.41913 32419 ft 469 kts 309°
2026-05-05 12:58 28.01387 34.39232 33094 ft 457 kts 303°
2026-05-05 12:58 28.03370 34.36476 33790 ft 448 kts 303°
2026-05-05 12:58 28.05334 34.33729 33962 ft 450 kts 303°
2026-05-05 12:59 28.09267 34.28238 33963 ft 446 kts 303°
2026-05-05 12:59 28.13174 34.22814 33965 ft 443 kts 303°
2026-05-05 13:00 28.19016 34.14704 33985 ft 442 kts 303°
2026-05-05 13:01 28.26771 34.03922 33973 ft 440 kts 303°
2026-05-05 13:01 28.30632 33.98547 34005 ft 439 kts 303°
2026-05-05 13:02 28.34489 33.93166 34032 ft 440 kts 303°
2026-05-05 13:02 28.38359 33.87757 33986 ft 442 kts 303°
2026-05-05 13:03 28.42237 33.82332 33989 ft 442 kts 303°
2026-05-05 13:03 28.46107 33.76917 34005 ft 441 kts 303°
2026-05-05 13:04 28.49960 33.71515 34014 ft 439 kts 303°
2026-05-05 13:04 28.53777 33.66156 34055 ft 438 kts 303°
2026-05-05 13:05 28.57605 33.60766 34024 ft 438 kts 303°
2026-05-05 13:05 28.61422 33.55389 34031 ft 436 kts 303°
2026-05-05 13:06 28.65233 33.50017 34023 ft 436 kts 303°
2026-05-05 13:06 28.69045 33.44645 34024 ft 436 kts 303°
2026-05-05 13:07 28.72860 33.39262 34020 ft 437 kts 303°
2026-05-05 13:07 28.76685 33.33853 34037 ft 443 kts 303°
2026-05-05 13:08 28.80610 33.28288 34040 ft 457 kts 303°
2026-05-05 13:08 28.84613 33.22618 34031 ft 459 kts 303°
2026-05-05 13:09 28.88613 33.16950 34037 ft 457 kts 303°
2026-05-05 13:09 28.92590 33.11302 34027 ft 456 kts 303°
2026-05-05 13:10 28.96550 33.05668 34031 ft 454 kts 303°
2026-05-05 13:10 29.00494 33.00048 34029 ft 453 kts 303°
2026-05-05 13:11 29.04427 32.94434 34053 ft 452 kts 303°
2026-05-05 13:11 29.08359 32.88815 34043 ft 452 kts 303°
2026-05-05 13:12 29.12287 32.83195 34036 ft 452 kts 303°
2026-05-05 13:12 29.16211 32.77573 34042 ft 452 kts 303°
2026-05-05 13:13 29.20137 32.71940 34042 ft 453 kts 303°
2026-05-05 13:13 29.24038 32.66334 34042 ft 453 kts 303°
2026-05-05 13:14 29.27964 32.60687 34048 ft 453 kts 303°
2026-05-05 13:14 29.31877 32.55016 34045 ft 454 kts 303°
2026-05-05 13:15 29.35774 32.49327 34072 ft 454 kts 303°
2026-05-05 13:15 29.39679 32.43618 34053 ft 455 kts 303°
2026-05-05 13:16 29.43584 32.37910 34050 ft 455 kts 303°
2026-05-05 13:16 29.47483 32.32203 34062 ft 454 kts 303°
2026-05-05 13:17 29.51379 32.26491 34055 ft 454 kts 303°
2026-05-05 13:17 29.55268 32.20781 34055 ft 455 kts 303°
2026-05-05 13:18 29.59159 32.15062 34064 ft 454 kts 303°
2026-05-05 13:18 29.63038 32.09351 34062 ft 453 kts 303°
2026-05-05 13:19 29.66914 32.03637 34064 ft 453 kts 303°
2026-05-05 13:19 29.70783 31.97924 34064 ft 452 kts 303°
2026-05-05 13:20 29.74643 31.92217 34064 ft 452 kts 303°
2026-05-05 13:20 29.78501 31.86506 34078 ft 451 kts 302°
2026-05-05 13:21 29.82250 31.80735 34078 ft 449 kts 301°
2026-05-05 13:21 29.85948 31.74946 34085 ft 448 kts 302°
2026-05-05 13:22 29.89648 31.69183 34077 ft 447 kts 302°
2026-05-05 13:22 29.93353 31.63426 34071 ft 447 kts 302°
2026-05-05 13:23 29.97061 31.57680 34045 ft 447 kts 302°
2026-05-05 13:23 30.00771 31.51923 34043 ft 447 kts 302°
2026-05-05 13:24 30.04478 31.46158 34042 ft 448 kts 302°
2026-05-05 13:24 30.08212 31.40399 34042 ft 449 kts 304°
2026-05-05 13:25 30.12538 31.35131 34063 ft 456 kts 311°
2026-05-05 13:25 30.17211 31.30183 34063 ft 456 kts 311°
2026-05-05 13:26 30.21836 31.25253 34051 ft 455 kts 311°
2026-05-05 13:26 30.26472 31.20279 34052 ft 454 kts 311°
2026-05-05 13:27 30.31089 31.15310 34054 ft 453 kts 311°
2026-05-05 13:27 30.35694 31.10347 34054 ft 452 kts 311°
2026-05-05 13:28 30.40286 31.05390 34052 ft 451 kts 311°
2026-05-05 13:28 30.44878 31.00427 34053 ft 451 kts 311°
2026-05-05 13:29 30.49468 30.95461 34106 ft 451 kts 311°
2026-05-05 13:29 30.54051 30.90495 34068 ft 451 kts 311°
2026-05-05 13:30 30.58626 30.85532 34061 ft 450 kts 311°
2026-05-05 13:30 30.63194 30.80569 34062 ft 449 kts 311°
2026-05-05 13:31 30.67750 30.75613 34060 ft 449 kts 311°
2026-05-05 13:31 30.72295 30.70661 34069 ft 449 kts 311°
2026-05-05 13:32 30.76854 30.65688 34069 ft 449 kts 311°
2026-05-05 13:32 30.81403 30.60717 34071 ft 449 kts 311°
2026-05-05 13:33 30.85953 30.55741 34077 ft 449 kts 311°
2026-05-05 13:33 30.90499 30.50761 34082 ft 449 kts 311°
2026-05-05 13:34 30.95040 30.45780 34079 ft 448 kts 311°
2026-05-05 13:34 30.99576 30.40797 34081 ft 448 kts 311°
2026-05-05 13:35 31.04102 30.35818 34083 ft 448 kts 311°
2026-05-05 13:35 31.07737 30.31558 34082 ft 446 kts 313°
2026-05-05 13:36 31.12612 30.26992 34084 ft 451 kts 316°
2026-05-05 13:36 31.17556 30.22465 34132 ft 452 kts 316°
2026-05-05 13:37 31.22464 30.17895 34098 ft 451 kts 316°
2026-05-05 13:37 31.27348 30.13301 34094 ft 450 kts 316°
2026-05-05 13:38 31.32216 30.08705 34094 ft 449 kts 316°
2026-05-05 13:38 31.37074 30.04114 34092 ft 448 kts 316°
2026-05-05 13:39 31.41926 29.99524 34098 ft 448 kts 316°
2026-05-05 13:39 31.46737 29.94966 34097 ft 448 kts 316°
2026-05-05 13:40 31.51578 29.90374 34091 ft 448 kts 316°
2026-05-05 13:40 31.56413 29.85782 34091 ft 447 kts 316°
2026-05-05 13:41 31.61239 29.81192 34082 ft 446 kts 316°
2026-05-05 13:41 31.66058 29.76603 34091 ft 446 kts 316°
2026-05-05 13:42 31.70870 29.72013 34088 ft 446 kts 316°
2026-05-05 13:42 31.75663 29.67435 34087 ft 445 kts 316°
2026-05-05 13:43 31.80397 29.62911 34150 ft 440 kts 316°
2026-05-05 13:43 31.85212 29.58290 34109 ft 451 kts 316°
2026-05-05 13:44 31.90069 29.53635 34085 ft 450 kts 316°
2026-05-05 13:44 31.94909 29.48988 34088 ft 447 kts 316°
2026-05-05 13:45 31.99741 29.44463 34087 ft 448 kts 320°
2026-05-05 13:45 32.05108 29.40665 34096 ft 452 kts 326°
2026-05-05 13:46 32.09708 29.37776 34086 ft 451 kts 326°
2026-05-05 13:46 32.15233 29.34257 34097 ft 451 kts 326°
2026-05-05 13:47 32.20745 29.30723 34090 ft 451 kts 326°
2026-05-05 13:47 32.26256 29.27191 34088 ft 450 kts 326°
2026-05-05 13:48 32.31760 29.23665 34087 ft 450 kts 326°
2026-05-05 13:48 32.37257 29.20137 34084 ft 450 kts 326°
2026-05-05 13:49 32.42750 29.16606 34079 ft 449 kts 326°
2026-05-05 13:49 32.48246 29.13067 34074 ft 449 kts 326°
2026-05-05 13:50 32.53743 29.09523 34082 ft 449 kts 326°
2026-05-05 13:50 32.59199 29.06000 34083 ft 450 kts 326°
2026-05-05 13:51 32.64690 29.02450 34082 ft 450 kts 326°
2026-05-05 13:51 32.70186 28.98891 34076 ft 450 kts 327°
2026-05-05 13:52 32.75682 28.95327 34082 ft 450 kts 327°
2026-05-05 13:52 32.81163 28.91769 34079 ft 449 kts 327°
2026-05-05 13:53 32.86646 28.88203 34079 ft 449 kts 327°
2026-05-05 13:53 32.92116 28.84641 34077 ft 448 kts 327°
2026-05-05 13:54 32.97586 28.81074 34097 ft 448 kts 327°
2026-05-05 13:54 33.03047 28.77508 34080 ft 447 kts 327°
2026-05-05 13:55 33.08492 28.73948 34074 ft 446 kts 327°
2026-05-05 13:55 33.13925 28.70390 34076 ft 445 kts 327°
2026-05-05 13:56 33.19346 28.66834 34072 ft 445 kts 327°
2026-05-05 13:56 33.24765 28.63274 34102 ft 444 kts 327°
2026-05-05 13:57 33.30177 28.59715 34079 ft 443 kts 327°
2026-05-05 13:57 33.35573 28.56161 34072 ft 443 kts 327°
2026-05-05 13:58 33.40963 28.52606 34073 ft 442 kts 327°
2026-05-05 13:58 33.46309 28.49075 34070 ft 442 kts 327°
2026-05-05 13:59 33.54382 28.43732 34080 ft 442 kts 327°
2026-05-05 14:00 33.61556 28.38974 34071 ft 443 kts 327°
2026-05-05 14:00 33.67858 28.34788 34072 ft 443 kts 327°
2026-05-05 14:01 33.73252 28.31199 34065 ft 443 kts 327°
2026-05-05 14:01 33.78643 28.27607 34068 ft 443 kts 327°
2026-05-05 14:02 33.84098 28.24114 34075 ft 445 kts 330°
2026-05-05 14:02 33.89666 28.20822 34065 ft 446 kts 330°
2026-05-05 14:03 33.95248 28.17530 34066 ft 447 kts 330°
2026-05-05 14:03 34.00814 28.14206 34065 ft 447 kts 330°
2026-05-05 14:04 34.06379 28.10856 34063 ft 447 kts 330°
2026-05-05 14:04 34.11947 28.07495 34069 ft 448 kts 330°
2026-05-05 14:05 34.17528 28.04120 34058 ft 449 kts 330°
2026-05-05 14:05 34.23078 28.00760 34060 ft 449 kts 330°
2026-05-05 14:06 34.28661 27.97376 34060 ft 449 kts 330°
2026-05-05 14:06 34.34248 27.93984 34076 ft 449 kts 330°
2026-05-05 14:07 34.39834 27.90588 34062 ft 450 kts 330°
2026-05-05 14:07 34.45427 27.87182 34050 ft 450 kts 330°
2026-05-05 14:08 34.51020 27.83771 34052 ft 450 kts 330°
2026-05-05 14:08 34.56609 27.80358 34049 ft 450 kts 330°
2026-05-05 14:09 34.62198 27.76939 34068 ft 450 kts 330°
2026-05-05 14:09 34.67793 27.73511 34053 ft 451 kts 330°
2026-05-05 14:10 34.73402 27.70070 34055 ft 452 kts 330°
2026-05-05 14:10 34.79014 27.66622 34042 ft 452 kts 330°
2026-05-05 14:11 34.84627 27.63167 34047 ft 452 kts 330°
2026-05-05 14:11 34.90207 27.59727 34047 ft 453 kts 330°
2026-05-05 14:12 34.95876 27.56228 34049 ft 454 kts 330°
2026-05-05 14:12 35.01506 27.52747 34044 ft 454 kts 330°
2026-05-05 14:13 35.07135 27.49261 34049 ft 454 kts 330°
2026-05-05 14:13 35.12766 27.45769 34033 ft 454 kts 330°
2026-05-05 14:14 35.18389 27.42276 34035 ft 453 kts 330°
2026-05-05 14:14 35.24002 27.38784 34051 ft 453 kts 330°
2026-05-05 14:15 35.29615 27.35286 34054 ft 452 kts 330°
2026-05-05 14:15 35.35222 27.31787 34055 ft 452 kts 330°
2026-05-05 14:16 35.40790 27.28306 34068 ft 452 kts 330°
2026-05-05 14:16 35.46401 27.24793 34046 ft 453 kts 330°
2026-05-05 14:17 35.52019 27.21271 34055 ft 454 kts 330°
2026-05-05 14:17 35.57639 27.17740 34049 ft 454 kts 330°
2026-05-05 14:18 35.63264 27.14203 34039 ft 454 kts 330°
2026-05-05 14:18 35.68876 27.10667 34056 ft 453 kts 331°
2026-05-05 14:19 35.74480 27.07130 34048 ft 452 kts 331°
2026-05-05 14:19 35.80069 27.03598 34047 ft 451 kts 330°
2026-05-05 14:20 35.85644 27.00069 34047 ft 450 kts 330°
2026-05-05 14:20 35.91212 26.96538 34049 ft 450 kts 330°
2026-05-05 14:21 35.96777 26.93004 34062 ft 450 kts 331°
2026-05-05 14:21 36.02346 26.89461 34054 ft 450 kts 331°
2026-05-05 14:22 36.07914 26.85914 34050 ft 450 kts 331°
2026-05-05 14:22 36.13472 26.82367 34052 ft 449 kts 331°
2026-05-05 14:23 36.19028 26.78816 34049 ft 449 kts 331°
2026-05-05 14:23 36.24578 26.75263 34060 ft 449 kts 331°
2026-05-05 14:24 36.30128 26.71704 34054 ft 449 kts 331°
2026-05-05 14:24 36.35639 26.68164 34050 ft 449 kts 331°
2026-05-05 14:25 36.41181 26.64599 34054 ft 449 kts 331°
2026-05-05 14:25 36.46729 26.61025 34057 ft 449 kts 330°
2026-05-05 14:26 36.52264 26.57453 34057 ft 449 kts 331°
2026-05-05 14:26 36.57809 26.53868 34046 ft 449 kts 331°
2026-05-05 14:27 36.62451 26.50863 34052 ft 448 kts 331°
2026-05-05 14:27 36.67947 26.47299 34053 ft 448 kts 331°
2026-05-05 14:28 36.73477 26.43708 34084 ft 448 kts 331°
2026-05-05 14:28 36.79006 26.40112 34063 ft 448 kts 331°
2026-05-05 14:29 36.84534 26.36510 34055 ft 448 kts 331°
2026-05-05 14:29 36.90058 26.32905 34057 ft 448 kts 331°
2026-05-05 14:30 36.95578 26.29296 34056 ft 447 kts 331°
2026-05-05 14:30 37.01091 26.25686 34045 ft 447 kts 331°
2026-05-05 14:31 37.06602 26.22072 34055 ft 447 kts 331°
2026-05-05 14:31 37.12110 26.18453 34058 ft 447 kts 331°
2026-05-05 14:32 37.17618 26.14829 34055 ft 447 kts 331°
2026-05-05 14:32 37.23127 26.11197 34060 ft 447 kts 331°
2026-05-05 14:33 37.28636 26.07560 34070 ft 448 kts 331°
2026-05-05 14:33 37.34147 26.03916 34064 ft 448 kts 331°
2026-05-05 14:34 37.39660 26.00264 34064 ft 448 kts 331°
2026-05-05 14:34 37.45166 25.96609 34060 ft 448 kts 331°
2026-05-05 14:35 37.50618 25.92985 34068 ft 447 kts 331°
2026-05-05 14:35 37.56170 25.89289 34063 ft 447 kts 331°
2026-05-05 14:36 37.61778 25.85890 34067 ft 448 kts 336°
2026-05-05 14:36 37.67543 25.82918 34060 ft 448 kts 336°
2026-05-05 14:37 37.73310 25.79947 34059 ft 448 kts 336°
2026-05-05 14:37 37.79073 25.76954 34057 ft 448 kts 336°
2026-05-05 14:38 37.84834 25.73945 34058 ft 448 kts 336°
2026-05-05 14:38 37.90555 25.70950 34056 ft 448 kts 336°
2026-05-05 14:39 37.96314 25.67929 34059 ft 448 kts 336°
2026-05-05 14:39 38.02071 25.64905 34070 ft 448 kts 336°
2026-05-05 14:40 38.07828 25.61875 34046 ft 448 kts 336°
2026-05-05 14:40 38.13587 25.58841 34055 ft 448 kts 336°
2026-05-05 14:41 38.19337 25.55804 34057 ft 448 kts 336°
2026-05-05 14:41 38.25092 25.52761 34067 ft 448 kts 336°
2026-05-05 14:42 38.30849 25.49711 34061 ft 448 kts 336°
2026-05-05 14:42 38.36602 25.46658 34058 ft 448 kts 336°
2026-05-05 14:43 38.42204 25.43680 34053 ft 448 kts 336°
2026-05-05 14:43 38.47956 25.40617 34053 ft 448 kts 336°
2026-05-05 14:44 38.53708 25.37548 34060 ft 448 kts 336°
2026-05-05 14:44 38.59451 25.34480 34059 ft 447 kts 336°
2026-05-05 14:45 38.65191 25.31407 34048 ft 447 kts 336°
2026-05-05 14:45 38.70920 25.28335 34051 ft 446 kts 336°
2026-05-05 14:46 38.76646 25.25259 34061 ft 446 kts 336°
2026-05-05 14:46 38.82370 25.22179 34055 ft 446 kts 336°
2026-05-05 14:47 38.88088 25.19097 34038 ft 446 kts 336°
2026-05-05 14:47 38.93806 25.16009 34054 ft 446 kts 336°
2026-05-05 14:48 38.99483 25.12938 34043 ft 446 kts 336°
2026-05-05 14:48 39.05196 25.09842 34062 ft 446 kts 336°
2026-05-05 14:49 39.10916 25.06737 34057 ft 446 kts 336°
2026-05-05 14:49 39.16635 25.03627 34043 ft 446 kts 336°
2026-05-05 14:50 39.22358 25.00509 34032 ft 446 kts 336°
2026-05-05 14:50 39.28079 24.97388 34052 ft 446 kts 335°
2026-05-05 14:51 39.33800 24.94260 34049 ft 447 kts 335°
2026-05-05 14:51 39.39522 24.91126 34050 ft 447 kts 335°
2026-05-05 14:52 39.45244 24.87986 34048 ft 447 kts 336°
2026-05-05 14:52 39.50970 24.84839 34054 ft 447 kts 336°
2026-05-05 14:53 39.56697 24.81686 34057 ft 447 kts 336°
2026-05-05 14:53 39.62424 24.78527 34040 ft 447 kts 335°
2026-05-05 14:54 39.68153 24.75361 34056 ft 447 kts 336°
2026-05-05 14:54 39.73880 24.72190 34046 ft 447 kts 336°
2026-05-05 14:55 39.79598 24.69019 34045 ft 447 kts 336°
2026-05-05 14:55 39.85311 24.65845 34044 ft 446 kts 336°
2026-05-05 14:56 39.91018 24.62668 34042 ft 446 kts 336°
2026-05-05 14:56 39.96730 24.59483 34037 ft 446 kts 336°
2026-05-05 14:57 40.02442 24.56291 34038 ft 447 kts 336°
2026-05-05 14:57 40.08157 24.53093 34038 ft 447 kts 336°
2026-05-05 14:58 40.13876 24.49886 34035 ft 447 kts 336°
2026-05-05 14:58 40.19557 24.46695 34035 ft 447 kts 336°
2026-05-05 14:59 40.25274 24.43477 34037 ft 448 kts 336°
2026-05-05 14:59 40.30995 24.40251 34035 ft 448 kts 336°
2026-05-05 15:00 40.35786 24.37545 34019 ft 448 kts 335°
2026-05-05 15:00 40.42443 24.33779 34044 ft 449 kts 335°
2026-05-05 15:01 40.48177 24.30528 34028 ft 449 kts 335°
2026-05-05 15:01 40.53923 24.27264 34027 ft 450 kts 335°
2026-05-05 15:02 40.59673 24.23991 34023 ft 450 kts 335°
2026-05-05 15:02 40.65428 24.20710 34030 ft 451 kts 335°
2026-05-05 15:03 40.71181 24.17424 34030 ft 451 kts 335°
2026-05-05 15:03 40.76936 24.14130 34023 ft 451 kts 335°
2026-05-05 15:04 40.82684 24.10834 34039 ft 451 kts 335°
2026-05-05 15:04 40.88436 24.07529 34003 ft 451 kts 336°
2026-05-05 15:05 40.97076 24.02555 34033 ft 454 kts 335°
2026-05-05 15:06 41.02866 23.99209 34014 ft 456 kts 335°
2026-05-05 15:06 41.08689 23.95842 34023 ft 457 kts 335°
2026-05-05 15:07 41.14526 23.92460 34021 ft 458 kts 335°
2026-05-05 15:07 41.20369 23.89068 34002 ft 458 kts 335°
2026-05-05 15:08 41.26205 23.85672 34014 ft 457 kts 335°
2026-05-05 15:08 41.32039 23.82270 34000 ft 458 kts 335°
2026-05-05 15:09 41.37863 23.78947 34004 ft 459 kts 339°
2026-05-05 15:09 41.44010 23.76631 34007 ft 461 kts 348°
2026-05-05 15:10 41.50356 23.75309 34038 ft 462 kts 349°
2026-05-05 15:10 41.56710 23.74036 34007 ft 462 kts 349°
2026-05-05 15:11 41.63070 23.72731 34027 ft 462 kts 349°
2026-05-05 15:11 41.69416 23.71408 34012 ft 462 kts 349°
2026-05-05 15:12 41.75747 23.70078 34016 ft 463 kts 349°
2026-05-05 15:12 41.82109 23.68739 34029 ft 463 kts 349°
2026-05-05 15:13 41.88474 23.67399 34030 ft 463 kts 349°
2026-05-05 15:13 41.94838 23.66056 34041 ft 463 kts 349°
2026-05-05 15:14 42.00173 23.64928 34063 ft 463 kts 349°
2026-05-05 15:14 42.06502 23.63589 34034 ft 464 kts 349°
2026-05-05 15:15 42.12872 23.62237 34049 ft 463 kts 349°
2026-05-05 15:15 42.19230 23.60884 34033 ft 463 kts 349°
2026-05-05 15:16 42.25590 23.59528 34040 ft 463 kts 349°
2026-05-05 15:17 42.30008 23.58585 34047 ft 463 kts 349°
2026-05-05 15:18 42.36378 23.57223 34038 ft 464 kts 349°
2026-05-05 15:18 42.42754 23.55857 34041 ft 464 kts 349°
2026-05-05 15:19 42.49124 23.54489 34043 ft 463 kts 349°
2026-05-05 15:19 42.55490 23.53119 34037 ft 464 kts 349°
2026-05-05 15:20 42.61868 23.51744 34043 ft 464 kts 349°
2026-05-05 15:20 42.68252 23.50365 34028 ft 465 kts 349°
2026-05-05 15:21 42.74659 23.48977 34033 ft 466 kts 349°
2026-05-05 15:21 42.81069 23.47586 34037 ft 466 kts 349°
2026-05-05 15:22 42.87478 23.46193 34037 ft 467 kts 349°
2026-05-05 15:22 42.93894 23.44796 34034 ft 467 kts 349°
2026-05-05 15:23 43.00305 23.43396 34011 ft 466 kts 349°
2026-05-05 15:23 43.06669 23.42003 34020 ft 467 kts 349°
2026-05-05 15:24 43.13082 23.40596 34025 ft 467 kts 349°
2026-05-05 15:24 43.19504 23.39184 34023 ft 467 kts 349°
2026-05-05 15:25 43.25927 23.37771 34008 ft 468 kts 349°
2026-05-05 15:25 43.32350 23.36354 34005 ft 468 kts 349°
2026-05-05 15:26 43.38778 23.34932 33996 ft 468 kts 349°
2026-05-05 15:26 43.45211 23.33506 34011 ft 468 kts 349°
2026-05-05 15:27 43.51656 23.32075 33988 ft 469 kts 349°
2026-05-05 15:27 43.58105 23.30639 33990 ft 470 kts 350°
2026-05-05 15:28 43.64564 23.29198 33984 ft 470 kts 350°
2026-05-05 15:28 43.71022 23.27754 33988 ft 470 kts 350°
2026-05-05 15:29 43.77490 23.26305 33984 ft 471 kts 350°
2026-05-05 15:29 43.83856 23.24241 33982 ft 470 kts 341°
2026-05-05 15:30 43.89890 23.20753 33975 ft 470 kts 334°
2026-05-05 15:30 43.95774 23.16773 33982 ft 470 kts 334°
2026-05-05 15:31 44.01665 23.12788 33967 ft 471 kts 334°
2026-05-05 15:31 44.07567 23.08825 33992 ft 472 kts 334°
2026-05-05 15:32 44.13486 23.04859 33975 ft 472 kts 334°
2026-05-05 15:32 44.19367 23.00910 33974 ft 473 kts 334°
2026-05-05 15:33 44.25298 22.96918 33978 ft 473 kts 334°
2026-05-05 15:33 44.31224 22.92919 33959 ft 474 kts 334°
2026-05-05 15:34 44.37143 22.88916 33962 ft 475 kts 334°
2026-05-05 15:34 44.43092 22.84884 33964 ft 475 kts 334°
2026-05-05 15:35 44.49042 22.80841 33982 ft 476 kts 334°
2026-05-05 15:35 44.54995 22.76787 33983 ft 476 kts 334°
2026-05-05 15:36 44.60958 22.72717 33985 ft 476 kts 334°
2026-05-05 15:36 44.66909 22.68646 33982 ft 476 kts 334°
2026-05-05 15:37 44.72854 22.64569 33972 ft 475 kts 334°
2026-05-05 15:37 44.78792 22.60482 33974 ft 475 kts 333°
2026-05-05 15:38 44.84639 22.56135 33965 ft 476 kts 331°
2026-05-05 15:38 44.90455 22.51638 33989 ft 477 kts 331°
2026-05-05 15:39 44.96247 22.47177 34007 ft 478 kts 332°
2026-05-05 15:39 45.02098 22.42701 33991 ft 478 kts 332°
2026-05-05 15:40 45.07682 22.37607 33971 ft 478 kts 321°
2026-05-05 15:40 45.12879 22.31692 33987 ft 480 kts 321°
2026-05-05 15:41 45.18084 22.25758 33982 ft 481 kts 321°
2026-05-05 15:41 45.23297 22.19854 33972 ft 481 kts 322°
2026-05-05 15:42 45.28537 22.13932 33963 ft 481 kts 321°
2026-05-05 15:42 45.33780 22.07999 33984 ft 482 kts 321°
2026-05-05 15:43 45.39025 22.02045 33974 ft 483 kts 321°
2026-05-05 15:43 45.44270 21.96076 33986 ft 483 kts 321°
2026-05-05 15:44 45.49511 21.90096 33952 ft 483 kts 321°
2026-05-05 15:44 45.54744 21.84111 33959 ft 483 kts 321°
2026-05-05 15:45 45.59983 21.78104 33958 ft 483 kts 321°
2026-05-05 15:45 45.65222 21.72082 33959 ft 484 kts 321°
2026-05-05 15:46 45.70475 21.66029 34217 ft 485 kts 321°
2026-05-05 15:46 45.73093 21.63007 34575 ft 484 kts 321°
2026-05-05 15:46 45.75713 21.59979 34766 ft 484 kts 320°
2026-05-05 15:46 45.78327 21.56953 34936 ft 485 kts 320°
2026-05-05 15:47 45.80950 21.53914 35066 ft 486 kts 320°
2026-05-05 15:47 45.86220 21.47796 35342 ft 488 kts 320°
2026-05-05 15:47 45.88857 21.44729 35521 ft 488 kts 320°
2026-05-05 15:48 45.91488 21.41665 35733 ft 487 kts 320°
2026-05-05 15:48 45.94123 21.38592 35872 ft 489 kts 320°
2026-05-05 15:48 45.96764 21.35510 35889 ft 490 kts 320°
2026-05-05 15:49 46.02030 21.29349 35939 ft 487 kts 320°
2026-05-05 15:49 46.07275 21.23199 35947 ft 486 kts 320°
2026-05-05 15:50 46.12510 21.17044 35940 ft 486 kts 320°
2026-05-05 15:50 46.17749 21.10870 35964 ft 487 kts 320°
2026-05-05 15:51 46.22963 21.04709 35936 ft 479 kts 320°
2026-05-05 15:51 46.28103 20.98620 35945 ft 477 kts 320°
2026-05-05 15:52 46.33227 20.92535 35939 ft 478 kts 320°
2026-05-05 15:52 46.38369 20.86413 35935 ft 478 kts 319°
2026-05-05 15:53 46.43507 20.80280 35937 ft 479 kts 319°
2026-05-05 15:53 46.48643 20.74134 35938 ft 479 kts 319°
2026-05-05 15:54 46.53785 20.67966 35942 ft 479 kts 319°
2026-05-05 15:54 46.58929 20.61779 35941 ft 480 kts 319°
2026-05-05 15:55 46.64068 20.55583 35932 ft 480 kts 319°
2026-05-05 15:55 46.69213 20.49363 35932 ft 481 kts 319°
2026-05-05 15:56 46.74356 20.43130 35934 ft 481 kts 319°
2026-05-05 15:56 46.79494 20.36888 35933 ft 481 kts 319°
2026-05-05 15:57 46.84595 20.30674 35929 ft 481 kts 319°
2026-05-05 15:57 46.89726 20.24408 35927 ft 481 kts 319°
2026-05-05 15:58 46.94854 20.18128 35928 ft 481 kts 319°
2026-05-05 15:58 46.99976 20.11840 35929 ft 481 kts 319°
2026-05-05 15:59 47.05099 20.05535 35930 ft 481 kts 319°
2026-05-05 15:59 47.10221 19.99215 35927 ft 481 kts 319°
2026-05-05 16:00 47.15338 19.92884 35914 ft 481 kts 319°
2026-05-05 16:00 47.20453 19.86539 35921 ft 481 kts 318°
2026-05-05 16:01 47.24699 19.81259 35922 ft 481 kts 318°
2026-05-05 16:01 47.29805 19.74894 35925 ft 481 kts 318°
2026-05-05 16:02 47.34906 19.68520 35920 ft 480 kts 318°
2026-05-05 16:02 47.39994 19.62146 35916 ft 480 kts 318°
2026-05-05 16:03 47.45085 19.55749 35917 ft 481 kts 318°
2026-05-05 16:03 47.50182 19.49330 35924 ft 481 kts 318°
2026-05-05 16:04 47.55274 19.42899 35916 ft 481 kts 318°
2026-05-05 16:04 47.60356 19.36463 35915 ft 480 kts 318°
2026-05-05 16:05 47.65430 19.30020 35914 ft 480 kts 318°
2026-05-05 16:05 47.70501 19.23567 35923 ft 480 kts 317°
2026-05-05 16:06 47.75564 19.17103 35906 ft 480 kts 317°
2026-05-05 16:06 47.80616 19.10637 35910 ft 479 kts 317°
2026-05-05 16:07 47.85661 19.04163 35916 ft 479 kts 317°
2026-05-05 16:07 47.90708 18.97669 35906 ft 479 kts 317°
2026-05-05 16:08 47.95748 18.91167 35913 ft 480 kts 317°
2026-05-05 16:08 48.00768 18.84674 35904 ft 481 kts 317°
2026-05-05 16:09 48.05821 18.78123 35893 ft 481 kts 317°
2026-05-05 16:09 48.10871 18.71552 35883 ft 481 kts 317°
2026-05-05 16:10 48.15914 18.64978 35887 ft 480 kts 316°
2026-05-05 16:10 48.20938 18.58409 35878 ft 479 kts 316°
2026-05-05 16:11 48.25955 18.51827 35883 ft 479 kts 316°
2026-05-05 16:12 48.35963 18.38654 35869 ft 480 kts 316°
2026-05-05 16:13 48.48488 18.22061 35860 ft 480 kts 316°
2026-05-05 16:13 48.53496 18.15405 35833 ft 480 kts 316°
2026-05-05 16:14 48.63495 18.02032 35831 ft 480 kts 315°
2026-05-05 16:15 48.73444 17.88656 35828 ft 478 kts 316°
2026-05-05 16:16 48.83353 17.75194 35808 ft 478 kts 312°
2026-05-05 16:17 48.87481 17.67366 35804 ft 474 kts 301°
2026-05-05 16:17 48.89112 17.63114 35800 ft 472 kts 295°
2026-05-05 16:18 48.91899 17.54297 35788 ft 451 kts 293°
2026-05-05 16:18 48.93230 17.49992 35793 ft 448 kts 293°
2026-05-05 16:19 48.97223 17.37156 35795 ft 448 kts 293°
2026-05-05 16:19 49.01263 17.24268 35782 ft 449 kts 294°
2026-05-05 16:20 49.03883 17.15911 35694 ft 431 kts 294°
2026-05-05 16:20 49.06410 17.07812 34704 ft 412 kts 293°
2026-05-05 16:21 49.08849 16.99948 33811 ft 408 kts 293°
2026-05-05 16:22 49.12443 16.88310 32389 ft 400 kts 293°
2026-05-05 16:22 49.14800 16.80664 31508 ft 395 kts 293°
2026-05-05 16:23 49.17132 16.73117 30633 ft 391 kts 294°
2026-05-05 16:23 49.18364 16.69428 30131 ft 390 kts 296°
2026-05-05 16:23 49.20952 16.62091 28796 ft 391 kts 296°
2026-05-05 16:24 49.22250 16.58433 28113 ft 392 kts 296°
2026-05-05 16:24 49.23555 16.54738 27317 ft 397 kts 296°
2026-05-05 16:24 49.26142 16.47354 26388 ft 389 kts 296°
2026-05-05 16:25 49.27405 16.43722 25908 ft 386 kts 296°
2026-05-05 16:25 49.29914 16.36482 24884 ft 382 kts 296°
2026-05-05 16:25 49.31153 16.32895 24468 ft 378 kts 296°
2026-05-05 16:26 49.33602 16.25793 23519 ft 376 kts 296°
2026-05-05 16:26 49.36034 16.18720 22419 ft 374 kts 296°
2026-05-05 16:27 49.37244 16.15196 21961 ft 371 kts 296°
2026-05-05 16:27 49.38423 16.11759 21602 ft 367 kts 296°
2026-05-05 16:27 49.39604 16.08307 21167 ft 364 kts 295°
2026-05-05 16:27 49.40777 16.04877 20720 ft 362 kts 295°
2026-05-05 16:28 49.41942 16.01460 20251 ft 361 kts 296°
2026-05-05 16:28 49.43102 15.98054 19825 ft 359 kts 296°
2026-05-05 16:28 49.44257 15.94665 19426 ft 356 kts 295°
2026-05-05 16:28 49.45398 15.91310 19065 ft 353 kts 295°
2026-05-05 16:29 49.46531 15.87972 18667 ft 351 kts 295°
2026-05-05 16:29 49.47658 15.84646 18263 ft 350 kts 295°
2026-05-05 16:29 49.48780 15.81328 17804 ft 350 kts 295°
2026-05-05 16:29 49.49902 15.78009 17342 ft 349 kts 295°
2026-05-05 16:30 49.51017 15.74710 16948 ft 347 kts 295°
2026-05-05 16:30 49.52122 15.71432 16567 ft 344 kts 295°
2026-05-05 16:30 49.53221 15.68172 16164 ft 342 kts 295°
2026-05-05 16:30 49.54314 15.64926 15760 ft 340 kts 295°
2026-05-05 16:31 49.55398 15.61697 15390 ft 339 kts 295°
2026-05-05 16:31 49.56476 15.58480 15004 ft 337 kts 295°
2026-05-05 16:31 49.57550 15.55277 14633 ft 336 kts 295°
2026-05-05 16:31 49.58619 15.52084 14277 ft 335 kts 295°
2026-05-05 16:32 49.59682 15.48903 13902 ft 333 kts 295°
2026-05-05 16:32 49.60740 15.45771 13827 ft 328 kts 296°
2026-05-05 16:32 49.61845 15.42687 13842 ft 331 kts 297°
2026-05-05 16:32 49.62980 15.39574 13844 ft 334 kts 297°
2026-05-05 16:33 49.64123 15.36447 13848 ft 335 kts 297°
2026-05-05 16:33 49.65270 15.33294 13613 ft 341 kts 297°
2026-05-05 16:33 49.66430 15.30095 13174 ft 341 kts 297°
2026-05-05 16:33 49.67576 15.26924 12761 ft 335 kts 297°
2026-05-05 16:34 49.68684 15.23848 12375 ft 329 kts 297°
2026-05-05 16:34 49.69799 15.20746 11992 ft 323 kts 297°
2026-05-05 16:34 49.70870 15.17760 11630 ft 322 kts 297°
2026-05-05 16:34 49.71953 15.14734 11269 ft 321 kts 297°
2026-05-05 16:35 49.73035 15.11708 10906 ft 321 kts 297°
2026-05-05 16:35 49.74111 15.08690 10531 ft 321 kts 297°
2026-05-05 16:35 49.75187 15.05673 10190 ft 322 kts 297°
2026-05-05 16:35 49.76275 15.02617 9778 ft 326 kts 297°
2026-05-05 16:36 49.77368 14.99546 9291 ft 327 kts 297°
2026-05-05 16:36 49.78469 14.96450 8757 ft 329 kts 297°
2026-05-05 16:36 49.79568 14.93355 8263 ft 327 kts 297°
2026-05-05 16:36 49.80658 14.90280 7740 ft 324 kts 297°
2026-05-05 16:37 49.81737 14.87234 7250 ft 321 kts 297°
2026-05-05 16:37 49.82806 14.84212 6758 ft 319 kts 297°
2026-05-05 16:37 49.83847 14.81270 6260 ft 300 kts 298°
2026-05-05 16:37 49.84815 14.78542 5720 ft 279 kts 299°
2026-05-05 16:38 49.85827 14.76011 5251 ft 276 kts 303°
2026-05-05 16:38 49.86939 14.73572 4773 ft 277 kts 306°
2026-05-05 16:39 49.87311 14.72799 4675 ft 275 kts 307°
2026-05-05 16:39 49.88443 14.70475 4498 ft 268 kts 307°
2026-05-05 16:39 49.89565 14.68190 4336 ft 265 kts 307°
2026-05-05 16:39 49.90675 14.65919 4244 ft 262 kts 308°
2026-05-05 16:40 49.91774 14.63669 4184 ft 262 kts 308°
2026-05-05 16:40 49.92861 14.61447 4106 ft 263 kts 308°
2026-05-05 16:40 49.93964 14.59185 4030 ft 263 kts 308°
2026-05-05 16:40 49.95082 14.56892 3985 ft 263 kts 308°
2026-05-05 16:41 49.96172 14.54659 3990 ft 263 kts 309°
2026-05-05 16:41 49.97275 14.52390 3978 ft 263 kts 309°
2026-05-05 16:41 49.98370 14.50142 3990 ft 260 kts 308°
2026-05-05 16:41 49.99446 14.47926 3964 ft 249 kts 308°
2026-05-05 16:42 50.00450 14.45866 3998 ft 236 kts 309°
2026-05-05 16:42 50.01440 14.43828 3677 ft 230 kts 308°
2026-05-05 16:42 50.02347 14.41962 3380 ft 207 kts 309°
2026-05-05 16:42 50.03189 14.40232 3135 ft 192 kts 309°
2026-05-05 16:43 50.03954 14.38656 2903 ft 176 kts 310°
2026-05-05 16:43 50.04653 14.37213 2666 ft 156 kts 311°
2026-05-05 16:43 50.05275 14.35935 2486 ft 148 kts 308°
2026-05-05 16:43 50.05895 14.34657 2308 ft 146 kts 307°
2026-05-05 16:44 50.06501 14.33402 2121 ft 145 kts 310°
2026-05-05 16:44 50.07115 14.32146 1890 ft 146 kts 311°
2026-05-05 16:44 50.07728 14.30884 1720 ft 147 kts 310°
2026-05-05 16:44 50.08335 14.29613 1497 ft 145 kts 309°
2026-05-05 16:45 50.08950 14.28342 1341 ft 150 kts 310°
2026-05-05 16:45 50.09589 14.27039 1214 ft 149 kts 309°
2026-05-05 16:45 50.10077 14.26033 1195 ft 62 kts 306°
2026-05-05 16:45 50.10244 14.25734 1190 ft 19 kts 325°